This is the latest recevied weather packets stored in our database for station/object YB3RDW-13. If no packets are shown the sender has not sent any weather packets the latest 1 day(s).
| Time | Temp. | Humidity | Pressure | Rain* | Wind** | Luminosity | Snow |
|---|---|---|---|---|---|---|---|
| 1778003217 | 28.89° C | 86% | 1012 hPa | 0 mm | 0.89 m/s, 94° | 0 W/m² | - |
| 1778002918 | 28.89° C | 87% | 1012 hPa | 0 mm | 0.89 m/s, 188° | 0 W/m² | - |
| 1778002618 | 28.89° C | 87% | 1012 hPa | 0 mm | 0 m/s | 0 W/m² | - |
| 1778002317 | 28.89° C | 87% | 1012 hPa | 0 mm | 0.45 m/s, 183° | 0 W/m² | - |
| 1778002017 | 28.89° C | 87% | 1012 hPa | 0 mm | 0.89 m/s, 188° | 0 W/m² | - |
| 1778001717 | 28.89° C | 86% | 1012 hPa | 0 mm | 0 m/s | 0 W/m² | - |
| 1778001418 | 28.89° C | 87% | 1012 hPa | 0 mm | 0.45 m/s, 177° | 0 W/m² | - |
| 1778001119 | 28.89° C | 87% | 1012 hPa | 0 mm | 0.45 m/s, 190° | 0 W/m² | - |
| 1778000818 | 28.89° C | 87% | 1012 hPa | 0 mm | 0.45 m/s, 177° | 0 W/m² | - |
| 1778000518 | 28.33° C | 87% | 1012 hPa | 0 mm | 0.45 m/s, 181° | 0 W/m² | - |
| 1778000228 | 28.33° C | 88% | 1012 hPa | 0 mm | 0 m/s | 0 W/m² | - |
| 1777999918 | 28.33° C | 88% | 1012 hPa | 0 mm | 0 m/s | 0 W/m² | - |
| 1777999619 | 28.33° C | 88% | 1012 hPa | 0 mm | 0 m/s | 0 W/m² | - |
| 1777999318 | 28.89° C | 87% | 1012 hPa | 0 mm | 0 m/s | 0 W/m² | - |
| 1777999017 | 28.89° C | 87% | 1012 hPa | 0 mm | 1.34 m/s, 214° | 0 W/m² | - |
| 1777998718 | 28.89° C | 87% | 1012 hPa | 0 mm | 0 m/s | 0 W/m² | - |
| 1777998418 | 28.89° C | 87% | 1012 hPa | 0 mm | 0 m/s | 0 W/m² | - |
| 1777998118 | 28.89° C | 87% | 1012 hPa | 0 mm | 0.89 m/s, 186° | 0 W/m² | - |
| 1777997817 | 28.89° C | 87% | 1012 hPa | 0 mm | 0.89 m/s, 215° | 0 W/m² | - |
| 1777997517 | 28.89° C | 87% | 1012 hPa | 0 mm | 1.79 m/s, 247° | 0 W/m² | - |
| 1777997218 | 28.89° C | 87% | 1012 hPa | 0 mm | 1.34 m/s, 242° | 0 W/m² | - |
| 1777996919 | 28.89° C | 87% | 1013 hPa | 0 mm | 1.34 m/s, 225° | 0 W/m² | - |
| 1777996618 | 28.89° C | 87% | 1013 hPa | 0 mm | 0.89 m/s, 216° | 0 W/m² | - |
| 1777996317 | 28.89° C | 87% | 1013 hPa | 0 mm | 1.34 m/s, 206° | 0 W/m² | - |
| 1777996022 | 28.89° C | 87% | 1012 hPa | 0 mm | 1.79 m/s, 179° | 0 W/m² | - |
* Rain latest hour (hover to see other rain measurements)
** Current wind speed in m/s (hover to see current wind gust speed)